Regional Weather Roundup
Issued by NWS Goodland, KS

Home | Current Version | Previous Version | Text Only | Print | Product List | Glossary On
Versions: 1 2 3 4 5 6 7 8 9 10 11 12 13 14 15 16 17 18 19 20 21 22 23 24 25 26 27 28 29 30 31 32 33 34 35 36 37 38 39 40 41 42 43 44 45 46 47 48 49 50
000
ASUS43 KGLD 231808
RWRGLD

GOODLAND FORECAST AREA HOURLY WEATHER ROUNDUP
NATIONAL WEATHER SERVICE GOODLAND KS
1200 PM MDT TUE MAY 23 2017

...OFFICIAL OBSERVATIONS...

CITY           SKY/WX    TMP DP  RH WIND       PRES   REMARKS
GOODLAND KS    CLOUDY    56  39  53 N23G30    30.08S
HILL CITY KS   CLOUDY    65  38  36 N23G32    30.00
IMPERIAL NEB   CLOUDY    59  36  42 NW24G32   30.07F
MCCOOK NEB     CLOUDY    61  35  37 N30G38    30.02F
AKRON CO       CLOUDY    55  34  45 N21G30    30.14F
BURLINGTON CO  CLOUDY    58  38  47 NW17G24   30.11F
LIMON CO       CLOUDY    51  34  52 N22G31    30.17F
$$

...UNOFFICIAL OBSERVATIONS...

CITY           SKY/WX    TMP DP  RH WIND       PRES   REMARKS
LENORA KS        N/A     61  32  33 MISG        N/A
NORTON KS      CLOUDY    55  37  50 NW15G21   30.00S
SHARON SPRINGS   N/A     59  42  53 NW18        N/A
TRENTON NEB      N/A     60  32  34 NW15G22     N/A
KIT CARSON CO    N/A     58  36  43 MISG        N/A
YUMA CO        CLOUDY    55  23  28 NW22G30   30.11F
$$




USA.gov is the U.S. government's official web portal to all federal, state and local government web resources and services.